Regional Weather Roundup
Issued by NWS

Home | Current Version | Previous Version | Graphics & Text | Print | Product List | Glossary On
Versions: 1 2 3 4 5 6 7 8 9 10 11 12 13 14 15 16 17 18 19 20 21 22 23 24 25 26 27 28 29 30 31 32 33 34 35 36 37 38 39 40 41 42 43 44 45 46 47 48 49
000
ASUS45 KBOU 220610
RWRCO

WEATHER ROUNDUP FOR COLORADO
NATIONAL WEATHER SERVICE PUEBLO CO
1200 AM MDT SUN APR 22 2018

NOTE: "FAIR" INDICATES FEW OR NO CLOUDS BELOW 12000 FEET WITH NO
SIGNIFICANT WEATHER AND/OR OBSTRUCTIONS TO VISIBILITY.

COZ001>005-013-030-031-220700-
...NORTHWEST COLORADO...

CITY           SKY/WX    TMP DP  RH WIND       PRES   REMARKS
CRAIG          CLEAR     37  33  85 E3        30.20S
HAYDEN         CLEAR     38  34  85 E10       30.23S
MEEKER         CLEAR     38  33  82 E8        30.22S
RABBIT EARS PA NOT AVBL
STEAMBOAT SPGS FAIR      34  33  96 CALM      30.24R
WALDEN         FAIR      30  25  80 SE8       30.25R WCI  23
$$

COZ006>008-011-220700-
...WEST CENTRAL VALLEYS...

CITY           SKY/WX    TMP DP  RH WIND       PRES   REMARKS
GRAND JUNCTION CLEAR     52  35  52 E13       30.17S
MONTROSE       CLEAR     42  32  67 E7        30.23S
EAGLE          CLEAR     34  31  88 E5        30.28R WCI  30
RIFLE          CLEAR     39  36  89 SE5       30.22S
DELTA          NOT AVBL
NUCLA          FAIR      45  30  57 E10       30.25S
$$

COZ017>023-064>068-220700-
...SOUTHWEST COLORADO...

CITY           SKY/WX    TMP DP  RH WIND       PRES   REMARKS
DURANGO        CLEAR     44  18  35 CALM      30.19R
CORTEZ         CLEAR     37  23  56 E9        30.21S
PAGOSA SPRINGS FAIR      40  15  35 N5        30.24S
TELLURIDE      CLEAR     34  26  74 SE3       30.33S
WOLF CREEK PAS CLEAR     25  14  63 N10G18    30.41R WCI  15
$$

COZ009-010-012-014-032>034-037-058>063-220700-
...CENTRAL COLORADO...

CITY           SKY/WX    TMP DP  RH WIND       PRES   REMARKS
ASPEN          CLEAR     30  27  88 S3        30.27R
BUENA VISTA    FAIR      35  28  74 W7        30.22S WCI  29
COPPER MTN     NOT AVBL
BERTHOUD PASS  CLOUDY    23  12  63 NW14G30   30.30S WCI  11
COTTONWOOD PAS CLEAR     37  27  65 W20G30    30.26S
GUNNISON       CLEAR     32  26  78 N6        30.28R WCI  26
KREMMLING      CLEAR     36  32  87 SE8       30.26R
LEADVILLE      CLEAR     23  22  96 NE6       30.27S WCI  16
MONARCH PASS   CLEAR     27  19  74 W17       30.43S WCI  14
SALIDA         FAIR      33  30  90 CALM      30.31S
SUNLIGHT       CLEAR     28  27  93 W8        30.37F WCI  20
WILKERSON PASS MOCLDY    28  21  74 N9G17     30.30R WCI  20
$$

COZ069>075-220700-
...SAN LUIS VALLEY/SANGRE DE CRISTO MOUNTAINS...

CITY           SKY/WX    TMP DP  RH WIND       PRES   REMARKS
ALAMOSA        CLEAR     40  24  53 NE9       30.23R
DEL NORTE      FAIR      37  22  54 W10       30.26S
LA VETA PASS   CLEAR     30  27  86 SW9       30.39S WCI  22
SAGUACHE       NOT AVBL
$$

COZ035-036-038>040-220700-
...NORTHERN COLORADO FRONT RANGE...

CITY           SKY/WX    TMP DP  RH WIND       PRES   REMARKS
DENVER INTL AP PTCLDY    35  31  85 SW10      30.16F WCI  27
DMNS CITY PARK NOT AVBL
AURORA         PTCLDY    35  33  94 S5        30.17F WCI  31
FRONT RANGE AP FAIR      36  34  92 S7        30.17F
ERIE MUNI ARPT FAIR      34  32  94 W3        30.23F
BOULDER MUN AP FAIR      34  34 100 CALM      30.17F
CENTENNIAL     PTCLDY    34  32  92 S7        30.16F WCI  28
BROOMFIELD     CLEAR     34  32  93 W9        30.17F WCI  26
LOVELAND       CLEAR     34  33  96 W5        30.18F WCI  30
LONGMONT       FAIR      33  31  93 W5        30.20F WCI  28
$$

COZ041-046-047-076>085-087-088-220700-
...PIKES PEAK/PALMER DIVIDE AND SOUTHERN FOOTHILLS...

CITY           SKY/WX    TMP DP  RH WIND       PRES   REMARKS
COLO. SPRINGS  CLOUDY    37  33  85 SE9       30.21S
A. F. ACADEMY  CLOUDY    36  32  84 S6        30.20S
SCHRIEVER AFB  NOT AVBL
CHEYENNE MTN   NOT AVBL
ELLICOTT         N/A    N/A N/A N/A S5        30.19F
FALCON         CLOUDY    34  32  94 SW5       30.21F WCI  29
FORT CARSON    CLOUDY    38  35  86 SE8       30.19F
LIMON          CLOUDY    35  34  96 S8        30.19S WCI  29
MONUMENT HILL  CLOUDY    32  32 100 S9        30.19F WCI  24
CANON CITY     FAIR      36  36 100 SE3       30.19S
WALSENBURG     MOCLDY    34  34 100 S6        30.20F WCI  29
TRINIDAD       CLOUDY    40  35  83 CALM      30.20F
$$

COZ042>045-048>051-090-091-220700-
...NORTHEAST COLORADO...

CITY           SKY/WX    TMP DP  RH WIND       PRES   REMARKS
GREELEY ARPT   CLEAR     37  36  96 SE3       30.19S
AKRON          FOG       34  34 100 SE8       30.20R VSB 1/4 WCI  27
BURLINGTON     CLOUDY    38  37  97 SE3       30.22S
WRAY           MOCLDY    37  37 100 S5        30.21F
YUMA           NOT AVBL
STERLING       NOT AVBL
HOLYOKE        FAIR      37  36  93 SW6       30.21F FOG
FORT MORGAN    CLOUDY    37  34  90 S3        30.19R
$$

COZ086-089-092>099-220700-
...SOUTHEAST COLORADO...

CITY           SKY/WX    TMP DP  RH WIND       PRES   REMARKS
PUEBLO         CLOUDY    44  38  79 SE10      30.20F
LA JUNTA       CLOUDY    42  40  92 E6        30.21F
LAMAR          CLOUDY    41  37  86 E6        30.21S
SPRINGFIELD      N/A     39  38  96 CALM      30.22R
$$





USA.gov is the U.S. government's official web portal to all federal, state and local government web resources and services.